Date,TemperatureHighF,TemperatureAvgF,TemperatureLowF,DewpointHighF,DewpointAvgF,DewpointLowF,HumidityHigh,HumidityAvg,HumidityLow,PressureMaxIn,PressureMinIn,WindSpeedMaxMPH,WindSpeedAvgMPH,GustSpeedMaxMPH,PrecipitationSumIn
2013-12-1,39.0,29.3,18.0,26.0,22.2,16.0,91,76,54,0.00,40.00,6,2,12,0.00
2013-12-2,43.0,33.3,26.0,28.0,25.0,21.0,88,72,52,0.00,40.00,7,3,16,0.00
2013-12-3,31.0,15.7,1.0,27.0,12.5,-5.0,97,87,78,0.00,40.00,5,3,11,0.00
2013-12-4,0.0,-4.4,-13.0,-5.0,-11.4,-20.0,78,71,65,0.00,40.00,6,4,16,0.00
2013-12-5,0.0,-9.8,-15.0,-16.0,-19.8,-24.0,70,61,46,0.00,40.00,7,4,17,0.00
2013-12-6,2.0,-11.0,-23.0,-12.0,-20.8,-31.0,72,61,44,0.00,40.00,5,2,10,0.00
2013-12-7,9.0,-5.6,-15.0,0.0,-13.9,-99.9,78,70,59,0.00,40.00,7,4,14,0.00
2013-12-8,10.0,-3.4,-9.0,-1.0,-11.8,-16.0,75,67,38,0.00,40.00,10,4,26,0.00
2013-12-9,11.0,1.2,-10.0,7.0,-6.5,-17.0,85,71,43,0.00,40.00,10,7,26,0.00
2013-12-10,18.0,10.2,0.0,14.0,5.7,-5.0,86,82,76,0.00,40.00,8,5,26,0.00
2013-12-11,20.0,10.0,-1.0,10.0,1.7,-6.0,81,69,52,0.00,40.00,7,3,14,0.08
2013-12-12,39.0,24.0,10.0,16.0,8.6,-2.0,80,54,35,0.00,40.00,5,2,11,0.07
2013-12-13,32.0,25.8,11.0,19.0,16.1,8.0,88,67,52,0.00,40.00,6,3,13,0.02
2013-12-14,30.0,24.7,20.0,20.0,16.3,-99.9,87,73,62,0.00,40.00,8,5,24,0.00
2013-12-15,38.0,32.4,27.0,20.0,17.9,14.0,70,55,45,0.00,40.00,10,4,38,0.00
2013-12-16,38.0,31.3,25.0,19.0,16.6,14.0,73,55,42,0.00,40.00,11,6,26,0.00
2013-12-17,42.0,31.3,21.0,19.0,16.5,14.0,81,56,37,0.00,40.00,7,4,17,0.00
2013-12-18,52.0,35.4,22.0,19.0,15.2,12.0,68,46,21,0.00,40.00,6,2,12,0.00
2013-12-19,28.0,17.3,1.0,19.0,9.9,-4.0,88,73,54,0.00,40.00,9,3,17,0.00
2013-12-20,23.0,8.5,-4.0,8.0,-2.7,-9.0,81,63,37,0.00,40.00,6,2,12,0.10
2013-12-21,24.0,12.2,-4.0,14.0,4.8,-99.9,84,75,60,0.00,40.00,5,2,11,0.01
2013-12-22,17.0,8.3,0.0,8.0,1.1,-9.0,84,73,57,0.00,40.00,7,4,15,0.01
2013-12-23,27.0,12.7,-5.0,24.0,5.9,-12.0,94,74,53,0.00,40.00,6,3,17,0.00
2013-12-24,30.0,24.2,14.0,26.0,18.9,11.0,94,81,48,0.00,40.00,8,5,23,0.01
2013-12-25,27.0,20.5,16.0,13.0,9.0,3.0,79,62,42,0.00,40.00,8,5,22,0.01
2013-12-26,39.0,30.4,24.0,19.0,14.7,4.0,67,52,36,0.00,40.00,8,5,27,0.00
2013-12-27,49.0,37.6,23.0,24.0,21.3,16.0,78,53,37,0.00,40.00,6,3,18,0.04
2013-12-28,38.0,20.1,-3.0,20.0,6.4,-99.9,79,60,33,0.00,40.00,11,5,24,0.01
2013-12-29,24.0,14.5,-7.0,15.0,7.6,-13.0,89,74,55,0.00,40.00,8,3,16,0.00
2013-12-30,26.0,21.3,16.0,20.0,17.8,13.0,92,86,72,0.00,40.00,9,3,24,0.00
2013-12-31,32.0,26.3,16.0,27.0,21.1,12.0,93,81,67,0.00,40.00,7,3,19,0.05